Dumas, TX

10:54 PM CST on February 08, 2016 (GMT -0600)
Moore County

Weather History for KDUX - February, 2013

Change the Weather History Date:

Wednesday, February 27, 2013

  Actual Average (KBGD) Record (KBGD)
Temperature  
Mean Temperature 34 °F 44 °F  
Max Temperature 41 °F 57 °F 81 °F (2006)
Min Temperature 26 °F 32 °F 6 °F (1962)
Degree Days  
Heating Degree Days 32 21  
Month to date heating degree days 623  
Since 1 July heating degree days 2975  
Cooling Degree Days 0 0  
Month to date cooling degree days 0  
Year to date cooling degree days 0  
Moisture  
Dew Point 24 °F    
Average Humidity 73    
Maximum Humidity 93    
Minimum Humidity 45    
Precipitation  
Precipitation 0.00 in 0.02 in 0.76 in (1966)
Month to date precipitation 0.60  
Year to date precipitation 1.19  
Snow  
Snow 0.00 in - 1.00 in (1966)
Month to date snowfall  
Since 1 July snowfall  
Snow Depth -    
Sea Level Pressure  
Sea Level Pressure 30.16 in    
Wind  
Wind Speed 15 mph (NNW)    
Max Wind Speed 25 mph    
Max Gust Speed 32 mph    
Visibility 10 miles    
Events Snow    
T = Trace of Precipitation, MM = Missing Value Source: NWS Daily Summary

Daily Weather History Graph

Daily Weather History Graph

Search for Another Location

Airport or City:

Trip Planner

Search our weather history database for the weather conditions in past years. The results will help you decide how hot, cold, wet, or windy it might be!

Date:

Astronomy

Feb. 27, 2013 Rise Set
Actual Time 7:20 AM CST 6:41 PM CST
Civil Twilight 6:54 AM CST 7:07 PM CST
Nautical Twilight 6:24 AM CST 7:36 PM CST
Astronomical Twilight 5:55 AM CST 8:06 PM CST
Moon 8:58 PM CST (2/27) 8:02 AM CST (2/27)
Length of Visible Light 12h 12m
Length of Day
11h 21m
Waning Gibbous, 96% of the Moon is Illuminated
Feb 27
Waning Gibbous
Mar 4
Last Quarter
Mar 11
New
Mar 19
First Quarter
Mar 27
Full

Hourly Weather History & Observations

Time (CST) Temp. Windchill Dew Point Humidity Pressure Visibility Wind Dir Wind Speed Gust Speed Precip Events Conditions
12:15 AM 30.2 °F 21.3 °F 26.6 °F 86% 29.95 in 10.0 mi WNW 10.4 mph - N/A   Scattered Clouds
12:35 AM 30.2 °F 20.8 °F 26.6 °F 86% 29.96 in 10.0 mi NW 11.5 mph - N/A   Mostly Cloudy
12:55 AM 32.0 °F 20.5 °F 28.4 °F 87% 29.97 in 10.0 mi NNW 18.4 mph 24.2 mph N/A Snow Light Snow
1:15 AM 32.0 °F 20.5 °F 30.2 °F 93% 29.97 in 7.0 mi NNW 18.4 mph 25.3 mph N/A Snow Light Snow
1:35 AM 32.0 °F 20.5 °F 28.4 °F 87% 29.98 in 10.0 mi NNW 18.4 mph 27.6 mph N/A   Mostly Cloudy
1:55 AM 32.0 °F 20.1 °F 26.6 °F 80% 30.00 in 10.0 mi NNW 19.6 mph 25.3 mph N/A   Scattered Clouds
2:15 AM 30.2 °F 18.9 °F 26.6 °F 86% 30.01 in 10.0 mi NNW 16.1 mph 21.9 mph N/A   Clear
2:35 AM 30.2 °F 19.3 °F 26.6 °F 86% 30.02 in 10.0 mi NNW 15.0 mph 23.0 mph N/A   Clear
2:55 AM 30.2 °F 20.8 °F 26.6 °F 86% 30.02 in 10.0 mi NW 11.5 mph - N/A   Clear
3:15 AM 28.4 °F 17.5 °F 24.8 °F 86% 30.02 in 10.0 mi NNW 13.8 mph - N/A   Clear
3:35 AM 28.4 °F 19.7 °F 23.0 °F 80% 30.03 in 10.0 mi NW 9.2 mph - N/A   Clear
3:55 AM 26.6 °F 16.8 °F 23.0 °F 86% 30.04 in 10.0 mi NW 10.4 mph - N/A   Clear
4:15 AM 28.4 °F 18.0 °F 24.8 °F 86% 30.04 in 10.0 mi NW 12.7 mph - N/A   Clear
4:35 AM 28.4 °F 17.0 °F 26.6 °F 93% 30.04 in 10.0 mi NW 15.0 mph - N/A   Scattered Clouds
4:55 AM 28.4 °F 16.6 °F 24.8 °F 86% 30.05 in 10.0 mi NW 16.1 mph - N/A   Mostly Cloudy
5:15 AM 28.4 °F 16.2 °F 26.6 °F 93% 30.05 in 10.0 mi NW 17.3 mph - N/A   Mostly Cloudy
5:35 AM 30.2 °F 18.5 °F 26.6 °F 86% 30.07 in 10.0 mi NW 17.3 mph 25.3 mph N/A   Overcast
5:55 AM 30.2 °F 18.5 °F 26.6 °F 86% 30.08 in 10.0 mi NW 17.3 mph - N/A   Scattered Clouds
6:15 AM 28.4 °F 15.1 °F 26.6 °F 93% 30.07 in 10.0 mi NNW 20.7 mph - N/A   Clear
6:35 AM 28.4 °F 15.1 °F 24.8 °F 86% 30.09 in 10.0 mi NNW 20.7 mph - N/A   Clear
6:55 AM 28.4 °F 15.4 °F 24.8 °F 86% 30.11 in 10.0 mi NNW 19.6 mph 24.2 mph N/A   Clear
7:15 AM 28.4 °F 15.4 °F 24.8 °F 86% 30.12 in 10.0 mi NNW 19.6 mph - N/A   Clear
7:35 AM 28.4 °F 16.6 °F 24.8 °F 86% 30.13 in 10.0 mi NNW 16.1 mph - N/A   Clear
7:55 AM 28.4 °F 17.0 °F 23.0 °F 80% 30.15 in 10.0 mi NW 15.0 mph - N/A   Clear
8:15 AM 28.4 °F 15.8 °F 24.8 °F 86% 30.16 in 10.0 mi NNW 18.4 mph - N/A   Clear
8:35 AM 30.2 °F 18.1 °F 24.8 °F 80% 30.17 in 10.0 mi NNW 18.4 mph - N/A   Clear
8:55 AM 30.2 °F 19.8 °F 26.6 °F 86% 30.19 in 10.0 mi NNW 13.8 mph - N/A   Clear
9:15 AM 32.0 °F 21.6 °F 26.6 °F 80% 30.20 in 10.0 mi NW 15.0 mph - N/A   Clear
9:35 AM 32.0 °F 19.8 °F 26.6 °F 80% 30.20 in 10.0 mi NNW 20.7 mph 25.3 mph N/A   Clear
9:55 AM 32.0 °F 20.5 °F 26.6 °F 80% 30.21 in 10.0 mi NNW 18.4 mph 27.6 mph N/A   Scattered Clouds
10:15 AM 33.8 °F 21.6 °F 26.6 °F 75% 30.22 in 10.0 mi NNW 23.0 mph 27.6 mph N/A   Scattered Clouds
10:35 AM 33.8 °F 21.6 °F 28.4 °F 81% 30.22 in 10.0 mi NNW 23.0 mph - N/A   Scattered Clouds
10:55 AM 33.8 °F 21.6 °F 26.6 °F 75% 30.23 in 10.0 mi NNW 23.0 mph 28.8 mph N/A   Mostly Cloudy
11:15 AM 35.6 °F 24.8 °F 26.6 °F 70% 30.24 in 10.0 mi NNW 19.6 mph 25.3 mph N/A   Mostly Cloudy
11:35 AM 35.6 °F 24.5 °F 26.6 °F 70% 30.24 in 10.0 mi North 20.7 mph 26.5 mph N/A   Scattered Clouds
11:55 AM 35.6 °F 24.5 °F 26.6 °F 70% 30.24 in 10.0 mi North 20.7 mph 25.3 mph N/A   Mostly Cloudy
12:15 PM 35.6 °F 25.5 °F 24.8 °F 65% 30.24 in 10.0 mi North 17.3 mph 25.3 mph N/A   Mostly Cloudy
12:35 PM 37.4 °F 27.2 °F 26.6 °F 65% 30.22 in 10.0 mi NNW 19.6 mph 26.5 mph N/A   Mostly Cloudy
12:55 PM 37.4 °F 26.6 °F 26.6 °F 65% 30.22 in 10.0 mi North 21.9 mph 27.6 mph N/A   Mostly Cloudy
1:15 PM 37.4 °F 25.9 °F 23.0 °F 56% 30.21 in 10.0 mi North 25.3 mph 29.9 mph N/A   Scattered Clouds
1:35 PM 37.4 °F 26.9 °F 23.0 °F 56% 30.21 in 10.0 mi North 20.7 mph - N/A   Scattered Clouds
1:55 PM 37.4 °F 26.6 °F 23.0 °F 56% 30.20 in 10.0 mi North 21.9 mph 27.6 mph N/A   Scattered Clouds
2:15 PM 39.2 °F 29.6 °F 24.8 °F 56% 30.20 in 10.0 mi North 19.6 mph 32.2 mph N/A   Scattered Clouds
2:35 PM 37.4 °F 26.6 °F 24.8 °F 60% 30.20 in 10.0 mi North 21.9 mph 27.6 mph N/A   Scattered Clouds
2:55 PM 37.4 °F 27.5 °F 23.0 °F 56% 30.20 in 10.0 mi North 18.4 mph - N/A   Mostly Cloudy
3:15 PM 37.4 °F 27.5 °F 23.0 °F 56% 30.20 in 10.0 mi NNW 18.4 mph - N/A   Scattered Clouds
3:35 PM 41.0 °F 31.9 °F 21.2 °F 45% 30.20 in 10.0 mi NNW 19.6 mph 26.5 mph N/A   Scattered Clouds
4:15 PM 41.0 °F 33.5 °F 23.0 °F 49% 30.19 in 10.0 mi North 13.8 mph - N/A   Mostly Cloudy
4:35 PM 41.0 °F 33.1 °F 21.2 °F 45% 30.19 in 10.0 mi North 15.0 mph 20.7 mph N/A   Scattered Clouds
4:55 PM 41.0 °F 33.5 °F 21.2 °F 45% 30.20 in 10.0 mi North 13.8 mph - N/A   Clear
5:15 PM 41.0 °F 32.2 °F 21.2 °F 45% 30.20 in 10.0 mi North 18.4 mph 21.9 mph N/A   Scattered Clouds
5:35 PM 39.2 °F 31.6 °F 21.2 °F 49% 30.20 in 10.0 mi North 12.7 mph - N/A   Clear
5:55 PM 39.2 °F 34.2 °F 23.0 °F 52% 30.20 in 10.0 mi NNE 6.9 mph - N/A   Clear
6:15 PM 37.4 °F 33.8 °F 24.8 °F 60% 30.20 in 10.0 mi North 4.6 mph - N/A   Clear
6:35 PM 33.8 °F 29.6 °F 24.8 °F 70% 30.21 in 10.0 mi North 4.6 mph - N/A   Clear
6:55 PM 32.0 °F 26.4 °F 23.0 °F 69% 30.20 in 10.0 mi North 5.8 mph - N/A   Clear
7:15 PM 32.0 °F 25.6 °F 23.0 °F 69% 30.21 in 10.0 mi North 6.9 mph - N/A   Clear
7:35 PM 33.8 °F 29.6 °F 23.0 °F 65% 30.21 in 10.0 mi NW 4.6 mph - N/A   Clear
7:55 PM 32.0 °F 27.5 °F 23.0 °F 69% 30.22 in 10.0 mi NW 4.6 mph - N/A   Clear
8:15 PM 32.0 °F 27.5 °F 23.0 °F 69% 30.22 in 10.0 mi NW 4.6 mph - N/A   Clear
8:35 PM 32.0 °F 27.5 °F 23.0 °F 69% 30.22 in 10.0 mi WNW 4.6 mph - N/A   Clear
8:55 PM 30.2 °F 24.3 °F 23.0 °F 75% 30.23 in 10.0 mi WNW 5.8 mph - N/A   Clear
9:15 PM 30.2 °F 23.4 °F 21.2 °F 69% 30.24 in 10.0 mi WNW 6.9 mph - N/A   Clear
9:35 PM 30.2 °F 23.4 °F 21.2 °F 69% 30.24 in 10.0 mi WNW 6.9 mph - N/A   Clear
10:15 PM 28.4 °F 22.2 °F 19.4 °F 69% 30.24 in 10.0 mi NW 5.8 mph - N/A   Clear
10:35 PM 28.4 °F 22.2 °F 19.4 °F 69% 30.25 in 10.0 mi NNW 5.8 mph - N/A   Clear
10:55 PM 28.4 °F 22.2 °F 19.4 °F 69% 30.25 in 10.0 mi NW 5.8 mph - N/A   Clear
11:15 PM 28.4 °F 22.2 °F 19.4 °F 69% 30.24 in 10.0 mi NW 5.8 mph - N/A   Clear
11:35 PM 28.4 °F 22.2 °F 19.4 °F 69% 30.25 in 10.0 mi NW 5.8 mph - N/A   Clear
11:55 PM 26.6 °F 20.0 °F 19.4 °F 74% 30.25 in 10.0 mi WNW 5.8 mph - N/A   Clear